Showing default

BISONSAT, 40968

Orbit data source: Space-Track

BISONSAT, 40968 is a payload satellite owned by Salish Kootenai (US) in LEO that was launched on Thu, 08 Oct 2015 UTC via an ATLAS V 401 launch vehicle from the Air Force Western Test Range (AFWTR). Payload-class satellites include a variety of spacecraft equipped with specific instruments for various scientific and technological missions. These include communications satellites like Starlink; space stations such as the ISS; scientific satellites like the Hubble; Earth observation satellites from companies like Planet Labs, Umbra, and HawkEye 360; GPS; miniature CubeSats for education and research; and military/defense satellites.

Loading next visibility...
Identifier
40968, 2015-058E
Orbit
LEO
Country
Flag of USUS
Related business
Manufacturer
Salish Kootenai
Mission
Operational Amateur Technology
Bus & Motor
CUBESAT 1U, Unknown motor
Mass
1 kg wet, 1 kg dry
Launch date (UTC)
2015-10-08 (11 years ago)
Launch vehicle
ATLAS V 401
Launch site
Air Force Western Test Range (AFWTR)
Object type
Payload
Rocket body
Debris
Shape & HBR
Box, 0.087 m
Radar Cross Section
0.015 m², Medium (>0.1 m² and < 1m²)

Expand to show TLE details & history
Last TLE update: 19 hours ago

TLE from 19 hours ago
0 BISONSAT
1 40968U 15058E   26267.13201734  .00002189  00000-0  17663-3 0  9996
2 40968  64.7735 308.8783 0128019  15.8379 344.6681 14.96537255131466
Epoch: 2026-09-24T03:10Z
TLE epoch observation values (Epoch: 2026-09-24T03:10:06.298Z)
Latitude
0.00005°
Longitude
-101.6211°
Altitude
493.812 km
Speed
7.665 km/s
True Right ascension
20h 35m 30s
True Declination
0° 00' 00"
Sunlit
Object was in full shadow at epoch
Visualization orbit readout
Latitude
Unknown
Longitude
Unknown
Altitude
Unknown
Speed
Unknown
Apparent Right ascension
Unknown
Apparent Declination
Unknown
Sunlit
N/A
Visualization observer readout
Local Sidereal Time
15:16:58
Azimuth
Unknown
Elevation
Unknown
Doppler factor
Unknown
Orbital elements
Apogee altitude
665.197 km
Perigee altitude
487.14 km
Semi-major axis
6,954.306 km
Eccentricity
0.0128
Inclination
64.7735°
RAAN
308.8783°
Arg. of periapsis
15.8379°
True anomaly
344.27414°
Mean anomaly
344.6681°
Eccentric anomaly
344.47173°
Mean motion
3.74251 °/min
Orbital period
96.19 mins
BSTAR
0.00017663
Loading maneuver chart data...
Computing Atmospheric mass density...
Loading historical data...
Loading historical data...
Loading historical data...
Loading historical data...
Loading historical data...
Loading historical data...
Loading historical data...

Documentation

Showing up to 5 results
|